When you browse on this site, cookies collect data to enhance your experience and personalize the content and advertising you see.
Visit our Privacy Policy to learn more. By continuing to use the site, you agree to this use of cookies and data.
  • In Netherlands
  • List of Countries
  • For 7 days
  • Water Temperature
  • Satellite Maps
  • Weather Map
  • Weather Widgets
  • user-avatar
    Login

    Hourly Weather Maun

    Today, 16 July, Tuesday

    Time Temperature Precipitation Wind Pressure Humidity
    00:00 +13°C° 0 mm 2 mps 684 mmHg 32%
    01:00 +13°C° 0 mm 2 mps 684 mmHg 34%
    02:00 +12°C° 0 mm 2 mps 684 mmHg 35%
    03:00 +10°C° 0 mm 2 mps 684 mmHg 37%
    04:00 +9°C° 0 mm 2 mps 684 mmHg 39%
    05:00 +9°C° 0 mm 2 mps 684 mmHg 42%
    06:00 +9°C° 0 mm 2 mps 684 mmHg 41%
    07:00 +9°C° 0 mm 2 mps 685 mmHg 41%
    08:00 +9°C° 0 mm 2 mps 685 mmHg 40%
    09:00 +15°C° 0 mm 2 mps 686 mmHg 33%
    10:00 +19°C° 0 mm 3 mps 687 mmHg 27%
    11:00 +24°C° 0 mm 3 mps 688 mmHg 20%
    12:00 +26°C° 0 mm 3 mps 687 mmHg 18%
    13:00 +27°C° 0 mm 3 mps 686 mmHg 16%
    14:00 +28°C° 0 mm 2 mps 686 mmHg 14%
    15:00 +28°C° 0 mm 2 mps 686 mmHg 14%
    16:00 +28°C° 0 mm 2 mps 685 mmHg 14%
    17:00 +28°C° 0 mm 2 mps 685 mmHg 13%
    18:00 +25°C° 0 mm 2 mps 685 mmHg 16%
    19:00 +21°C° 0 mm 2 mps 685 mmHg 19%
    20:00 +18°C° 0 mm 3 mps 684 mmHg 21%
    21:00 +16°C° 0 mm 2 mps 684 mmHg 24%
    22:00 +15°C° 0 mm 2 mps 685 mmHg 26%
    23:00 +14°C° 0 mm 2 mps 685 mmHg 29%

    Tomorrow, 17 July, Wednesday

    Time Temperature Precipitation Wind Pressure Humidity
    00:00 +14°C° 0 mm 2 mps 684 mmHg 31%
    01:00 +13°C° 0 mm 2 mps 684 mmHg 34%
    02:00 +13°C° 0 mm 2 mps 684 mmHg 36%
    03:00 +12°C° 0 mm 2 mps 684 mmHg 39%
    04:00 +10°C° 0 mm 2 mps 684 mmHg 42%
    05:00 +11°C° 0 mm 1 mps 684 mmHg 45%
    06:00 +11°C° 0 mm 1 mps 685 mmHg 44%
    07:00 +12°C° 0 mm 2 mps 685 mmHg 44%
    08:00 +12°C° 0 mm 2 mps 686 mmHg 43%
    09:00 +16°C° 0 mm 2 mps 687 mmHg 37%
    10:00 +20°C° 0 mm 2 mps 687 mmHg 32%
    11:00 +25°C° 0 mm 3 mps 688 mmHg 27%
    12:00 +26°C° 0 mm 3 mps 688 mmHg 24%
    13:00 +27°C° 0 mm 2 mps 687 mmHg 22%
    14:00 +29°C° 0 mm 2 mps 686 mmHg 19%
    15:00 +29°C° 0 mm 2 mps 686 mmHg 19%
    16:00 +28°C° 0 mm 2 mps 686 mmHg 18%
    17:00 +28°C° 0 mm 2 mps 685 mmHg 18%
    18:00 +25°C° 0 mm 2 mps 685 mmHg 21%
    19:00 +21°C° 0 mm 2 mps 685 mmHg 25%
    20:00 +18°C° 0 mm 2 mps 685 mmHg 30%
    21:00 +17°C° 0 mm 2 mps 685 mmHg 31%
    22:00 +16°C° 0 mm 2 mps 685 mmHg 32%
    23:00 +15°C° 0 mm 2 mps 685 mmHg 34%

    Day after tomorrow, 18 July, Thursday

    Time Temperature Precipitation Wind Pressure Humidity
    00:00 +15°C° 0 mm 2 mps 684 mmHg 34%
    01:00 +14°C° 0 mm 2 mps 684 mmHg 35%
    02:00 +14°C° 0 mm 2 mps 684 mmHg 35%
    03:00 +13°C° 0 mm 2 mps 684 mmHg 36%
    04:00 +13°C° 0 mm 2 mps 684 mmHg 37%
    05:00 +12°C° 0 mm 2 mps 684 mmHg 38%
    06:00 +12°C° 0 mm 2 mps 684 mmHg 38%
    07:00 +13°C° 0 mm 2 mps 685 mmHg 37%
    08:00 +13°C° 0 mm 2 mps 685 mmHg 37%
    09:00 +17°C° 0 mm 2 mps 686 mmHg 30%
    10:00 +21°C° 0 mm 3 mps 687 mmHg 24%
    11:00 +25°C° 0 mm 3 mps 687 mmHg 18%
    12:00 +27°C° 0 mm 3 mps 687 mmHg 15%
    13:00 +28°C° 0 mm 3 mps 686 mmHg 13%
    14:00 +30°C° 0 mm 2 mps 685 mmHg 11%
    15:00 +29°C° 0 mm 2 mps 685 mmHg 11%
    16:00 +29°C° 0 mm 2 mps 685 mmHg 12%
    17:00 +29°C° 0 mm 2 mps 684 mmHg 12%
    18:00 +26°C° 0 mm 2 mps 684 mmHg 15%
    19:00 +21°C° 0 mm 2 mps 684 mmHg 18%
    20:00 +18°C° 0 mm 2 mps 683 mmHg 22%
    21:00 +17°C° 0 mm 2 mps 683 mmHg 24%
    22:00 +16°C° 0 mm 2 mps 684 mmHg 25%
    23:00 +15°C° 0 mm 2 mps 684 mmHg 27%

    19 July, Friday

    Time Temperature Precipitation Wind Pressure Humidity
    00:00 +15°C° 0 mm 2 mps 684 mmHg 27%
    01:00 +15°C° 0 mm 2 mps 683 mmHg 27%
    02:00 +15°C° 0 mm 1 mps 683 mmHg 28%
    03:00 +14°C° 0 mm 1 mps 683 mmHg 29%
    04:00 +13°C° 0 mm 1 mps 683 mmHg 31%
    05:00 +12°C° 0 mm 1 mps 683 mmHg 32%
    06:00 +13°C° 0 mm 1 mps 683 mmHg 32%
    07:00 +13°C° 0 mm 1 mps 684 mmHg 31%
    08:00 +13°C° 0 mm 1 mps 685 mmHg 30%
    09:00 +18°C° 0 mm 2 mps 685 mmHg 25%
    10:00 +23°C° 0 mm 2 mps 686 mmHg 20%
    11:00 +27°C° 0 mm 2 mps 687 mmHg 15%
    12:00 +28°C° 0 mm 2 mps 686 mmHg 13%
    13:00 +29°C° 0 mm 2 mps 686 mmHg 12%
    14:00 +31°C° 0 mm 2 mps 685 mmHg 10%
    15:00 +30°C° 0 mm 2 mps 685 mmHg 10%
    16:00 +30°C° 0 mm 2 mps 684 mmHg 10%
    17:00 +30°C° 0 mm 2 mps 684 mmHg 10%
    18:00 +26°C° 0 mm 2 mps 684 mmHg 12%
    19:00 +23°C° 0 mm 2 mps 683 mmHg 15%
    20:00 +19°C° 0 mm 2 mps 683 mmHg 18%
    21:00 +18°C° 0 mm 2 mps 683 mmHg 19%
    22:00 +18°C° 0 mm 1 mps 683 mmHg 20%
    23:00 +16°C° 0 mm 1 mps 683 mmHg 22%

    20 July, Saturday

    Time Temperature Precipitation Wind Pressure Humidity
    00:00 +15°C° 0 mm 1 mps 683 mmHg 22%
    01:00 +15°C° 0 mm 1 mps 683 mmHg 23%
    02:00 +14°C° 0 mm 1 mps 682 mmHg 24%
    03:00 +14°C° 0 mm 1 mps 682 mmHg 24%
    04:00 +13°C° 0 mm 2 mps 682 mmHg 24%
    05:00 +13°C° 0 mm 2 mps 682 mmHg 24%
    06:00 +13°C° 0 mm 2 mps 683 mmHg 23%
    07:00 +13°C° 0 mm 2 mps 684 mmHg 22%
    08:00 +14°C° 0 mm 2 mps 684 mmHg 22%
    09:00 +18°C° 0 mm 2 mps 685 mmHg 18%
    10:00 +22°C° 0 mm 3 mps 686 mmHg 14%
    11:00 +28°C° 0 mm 4 mps 687 mmHg 10%
    12:00 +29°C° 0 mm 3 mps 686 mmHg 9%
    13:00 +30°C° 0 mm 3 mps 686 mmHg 8%
    14:00 +31°C° 0 mm 3 mps 685 mmHg 7%
    15:00 +31°C° 0 mm 3 mps 685 mmHg 7%
    16:00 +30°C° 0 mm 3 mps 684 mmHg 8%
    17:00 +30°C° 0 mm 3 mps 684 mmHg 8%
    18:00 +26°C° 0 mm 2 mps 684 mmHg 10%
    19:00 +23°C° 0 mm 2 mps 683 mmHg 12%
    20:00 +19°C° 0 mm 2 mps 683 mmHg 14%
    21:00 +18°C° 0 mm 2 mps 683 mmHg 15%
    22:00 +17°C° 0 mm 2 mps 683 mmHg 16%
    23:00 +16°C° 0 mm 1 mps 683 mmHg 17%

    21 July, Sunday

    Time Temperature Precipitation Wind Pressure Humidity
    00:00 +16°C° 0 mm 2 mps 683 mmHg 18%
    01:00 +15°C° 0 mm 2 mps 683 mmHg 18%
    02:00 +14°C° 0 mm 2 mps 683 mmHg 19%
    03:00 +14°C° 0 mm 2 mps 683 mmHg 19%
    04:00 +13°C° 0 mm 2 mps 683 mmHg 19%
    05:00 +13°C° 0 mm 2 mps 683 mmHg 19%
    06:00 +13°C° 0 mm 2 mps 683 mmHg 19%
    07:00 +13°C° 0 mm 2 mps 684 mmHg 19%
    08:00 +13°C° 0 mm 2 mps 685 mmHg 19%
    09:00 +17°C° 0 mm 3 mps 685 mmHg 16%
    10:00 +21°C° 0 mm 3 mps 686 mmHg 14%
    11:00 +27°C° 0 mm 4 mps 687 mmHg 11%
    12:00 +28°C° 0 mm 4 mps 687 mmHg 11%
    13:00 +29°C° 0 mm 4 mps 686 mmHg 10%
    14:00 +32°C° 0 mm 4 mps 686 mmHg 10%
    15:00 +30°C° 0 mm 4 mps 685 mmHg 10%
    16:00 +30°C° 0 mm 4 mps 685 mmHg 11%
    17:00 +29°C° 0 mm 3 mps 684 mmHg 11%
    18:00 +26°C° 0 mm 3 mps 684 mmHg 15%
    19:00 +22°C° 0 mm 3 mps 684 mmHg 19%
    20:00 +19°C° 0 mm 3 mps 684 mmHg 23%
    21:00 +18°C° 0 mm 3 mps 684 mmHg 28%
    22:00 +17°C° 0 mm 3 mps 685 mmHg 32%
    23:00 +15°C° 0 mm 4 mps 685 mmHg 37%
    Show more